Regional Weather Roundup
Issued by NWS Binghamton, NY

Home | Current Version | Previous Version | Text Only | Print | Product List | Glossary On
Versions: 1 2 3 4 5 6 7 8 9 10 11 12 13 14 15 16 17 18 19 20 21 22 23 24 25 26 27
000
ASUS41 KBGM 231610
RWRBGM

REGIONAL WEATHER ROUNDUP
NATIONAL WEATHER SERVICE BINGHAMTON NY
1200 PM EDT WED AUG 23 2017

Note: "fair" indicates few or no clouds below 12,000 feet with no
significant weather and/or obstructions to visibility.

* = Station(s) that does not report precipitation, such as rain,
snow, etc, also no thunder or fog.

NYZ009-015>018-022>025-036-037-044>046-055>057-062-231700
...Central New York...

CITY           SKY/WX    TMP DP  RH WIND       PRES   REMARKS
Binghamton     MOSUNNY   66  51  58 NW10G18   29.90S
Cortland       FAIR      68  52  56 W10G18    29.90S
Dansville      SUNNY     72  48  42 W8        29.90S
Elmira         MOSUNNY   70  36  28 NW8       29.89S
Seneca Falls   MOSUNNY   70  52  52 NW10      29.88S
Ithaca         MOSUNNY   69  53  56 NW13      29.91R
Hamilton       MOSUNNY   70  48  46 NW8       29.88S
Hornell        MOSUNNY   70  48  46 W10G16    29.94F
Monticello     CLOUDY    68  53  58 W9G16     29.91S
Oneonta        MOSUNNY   66 N/A N/A NW7G20    29.89S
Penn Yan       SUNNY     71  47  42 W8G21     29.90S
Rome           PTSUNNY   68  56  65 W13       29.84F
Sidney         MOSUNNY   68  52  56 W8        29.88S
Syracuse       PTSUNNY   71  54  54 W13G21    29.86R
$$

PAZ038>040-043-044-047-048-072-231700
...Northeast Pennsylvania...

CITY           SKY/WX    TMP DP  RH WIND       PRES   REMARKS
Hazleton         N/A     73  52  46 W5        29.96R
Scranton       MOSUNNY   72  54  53 VRB3      29.90S
$$
&&
KEY
WCI = Wind Chill Index
VSB = Visibility
HX  = Heat Index
$$




USA.gov is the U.S. government's official web portal to all federal, state and local government web resources and services.